When you browse on this site, cookies collect data to enhance your experience and personalize the content and advertising you see.
Visit our Privacy Policy to learn more. By continuing to use the site, you agree to this use of cookies and data.
  • In Slovakia
  • List of Countries
  • For 7 days
  • Water Temperature
  • Weather Map
  • Weather Widgets
  • user-avatar
    Login

    Hourly Weather Elbasan

    Today, 17 February, Monday

    Time Temperature Precipitation Wind Pressure Humidity
    00:00 +8°C° 0 mm 1 mps 744 mmHg 70%
    01:00 +8°C° 0 mm 1 mps 744 mmHg 69%
    02:00 +8°C° 0 mm 1 mps 744 mmHg 69%
    03:00 +7°C° 0 mm 1 mps 743 mmHg 68%
    04:00 +7°C° 0 mm 1 mps 743 mmHg 67%
    05:00 +7°C° 0 mm 1 mps 743 mmHg 66%
    06:00 +7°C° 0 mm 1 mps 743 mmHg 64%
    07:00 +6°C° 0 mm 2 mps 743 mmHg 63%
    08:00 +9°C° 0 mm 1 mps 743 mmHg 57%
    09:00 +11°C° 0 mm 1 mps 743 mmHg 52%
    10:00 +12°C° 0 mm 0 mps 742 mmHg 46%
    11:00 +14°C° 0 mm 1 mps 742 mmHg 46%
    12:00 +15°C° 0 mm 1 mps 742 mmHg 46%
    13:00 +16°C° 0 mm 1 mps 741 mmHg 46%
    14:00 +15°C° 0 mm 1 mps 741 mmHg 51%
    15:00 +15°C° 0 mm 1 mps 740 mmHg 56%
    16:00 +14°C° 0 mm 1 mps 740 mmHg 61%
    17:00 +13°C° 0 mm 1 mps 740 mmHg 66%
    18:00 +11°C° 0 mm 1 mps 740 mmHg 70%
    19:00 +9°C° 0 mm 0 mps 740 mmHg 75%
    20:00 +9°C° 0 mm 0 mps 740 mmHg 74%
    21:00 +9°C° 0 mm 0 mps 740 mmHg 73%
    22:00 +9°C° 0 mm 0 mps 740 mmHg 72%
    23:00 +8°C° 0 mm 0 mps 740 mmHg 74%

    Tomorrow, 18 February, Tuesday

    Time Temperature Precipitation Wind Pressure Humidity
    00:00 +8°C° 0 mm 0 mps 739 mmHg 75%
    01:00 +8°C° 0 mm 0 mps 739 mmHg 76%
    02:00 +8°C° 0 mm 0 mps 739 mmHg 75%
    03:00 +7°C° 0 mm 0 mps 739 mmHg 74%
    04:00 +7°C° 0 mm 0 mps 738 mmHg 74%
    05:00 +7°C° 0 mm 0 mps 738 mmHg 70%
    06:00 +7°C° 0 mm 0 mps 738 mmHg 67%
    07:00 +7°C° 0 mm 0 mps 738 mmHg 64%
    08:00 +9°C° 0 mm 0 mps 738 mmHg 59%
    09:00 +11°C° 0 mm 0 mps 738 mmHg 55%
    10:00 +14°C° 0 mm 1 mps 738 mmHg 50%
    11:00 +14°C° 0 mm 1 mps 738 mmHg 49%
    12:00 +15°C° 0 mm 1 mps 738 mmHg 48%
    13:00 +16°C° 0 mm 2 mps 738 mmHg 46%
    14:00 +15°C° 0 mm 2 mps 737 mmHg 51%
    15:00 +15°C° 0 mm 2 mps 737 mmHg 55%
    16:00 +14°C° 0 mm 2 mps 737 mmHg 60%
    17:00 +13°C° 0 mm 1 mps 737 mmHg 65%
    18:00 +12°C° 0 mm 1 mps 738 mmHg 70%
    19:00 +9°C° 0 mm 0 mps 738 mmHg 75%
    20:00 +10°C° 0 mm 1 mps 738 mmHg 75%
    21:00 +10°C° 0 mm 1 mps 738 mmHg 75%
    22:00 +10°C° 0 mm 1 mps 738 mmHg 75%
    23:00 +9°C° 0 mm 1 mps 738 mmHg 76%

    Day after tomorrow, 19 February, Wednesday

    Time Temperature Precipitation Wind Pressure Humidity
    00:00 +9°C° 0 mm 1 mps 738 mmHg 78%
    01:00 +9°C° 0 mm 1 mps 738 mmHg 79%
    02:00 +9°C° 0 mm 1 mps 738 mmHg 79%
    03:00 +8°C° 0 mm 1 mps 737 mmHg 80%
    04:00 +8°C° 0 mm 1 mps 737 mmHg 81%
    05:00 +8°C° 0 mm 1 mps 737 mmHg 81%
    06:00 +8°C° 0 mm 1 mps 737 mmHg 81%
    07:00 +8°C° 0 mm 1 mps 737 mmHg 81%
    08:00 +10°C° 0 mm 1 mps 737 mmHg 76%
    09:00 +11°C° 0 mm 1 mps 737 mmHg 71%
    10:00 +13°C° 0 mm 1 mps 737 mmHg 65%
    11:00 +13°C° 0 mm 1 mps 737 mmHg 65%
    12:00 +14°C° 0 mm 2 mps 736 mmHg 64%
    13:00 +14°C° 0 mm 2 mps 736 mmHg 63%
    14:00 +14°C° 0 mm 2 mps 735 mmHg 67%
    15:00 +13°C° 0 mm 2 mps 735 mmHg 71%
    16:00 +13°C° 0 mm 2 mps 735 mmHg 75%
    17:00 +12°C° 0.1 mm 2 mps 735 mmHg 80%
    18:00 +11°C° 0.1 mm 1 mps 734 mmHg 86%
    19:00 +10°C° 0.1 mm 1 mps 734 mmHg 92%
    20:00 +10°C° 0.5 mm 1 mps 734 mmHg 91%
    21:00 +10°C° 0.5 mm 1 mps 734 mmHg 91%
    22:00 +10°C° 0.5 mm 1 mps 734 mmHg 91%
    23:00 +10°C° 1.1 mm 1 mps 734 mmHg 92%

    20 February, Thursday

    Time Temperature Precipitation Wind Pressure Humidity
    00:00 +9°C° 1.1 mm 2 mps 734 mmHg 94%
    01:00 +9°C° 1.1 mm 2 mps 733 mmHg 95%
    02:00 +8°C° 1.1 mm 2 mps 733 mmHg 95%
    03:00 +8°C° 1.1 mm 2 mps 733 mmHg 95%
    04:00 +9°C° 1.1 mm 1 mps 733 mmHg 95%
    05:00 +9°C° 0.8 mm 1 mps 733 mmHg 95%
    06:00 +9°C° 0.8 mm 1 mps 733 mmHg 95%
    07:00 +8°C° 0.8 mm 1 mps 733 mmHg 95%
    08:00 +9°C° 0.8 mm 1 mps 733 mmHg 88%
    09:00 +9°C° 0.8 mm 2 mps 734 mmHg 82%
    10:00 +9°C° 0.8 mm 2 mps 734 mmHg 75%
    11:00 +9°C° 0.7 mm 2 mps 734 mmHg 73%
    12:00 +9°C° 0.7 mm 2 mps 734 mmHg 71%
    13:00 +9°C° 0.7 mm 3 mps 734 mmHg 68%
    14:00 +9°C° 0.2 mm 3 mps 734 mmHg 68%
    15:00 +9°C° 0.2 mm 2 mps 734 mmHg 67%
    16:00 +9°C° 0.2 mm 2 mps 734 mmHg 66%
    17:00 +8°C° 0.1 mm 2 mps 734 mmHg 68%
    18:00 +7°C° 0.1 mm 2 mps 735 mmHg 71%
    19:00 +6°C° 0.1 mm 2 mps 735 mmHg 73%
    20:00 +5°C° 0 mm 2 mps 736 mmHg 72%
    21:00 +5°C° 0 mm 2 mps 736 mmHg 71%
    22:00 +4°C° 0 mm 2 mps 737 mmHg 70%
    23:00 +4°C° 0 mm 2 mps 737 mmHg 70%

    21 February, Friday

    Time Temperature Precipitation Wind Pressure Humidity
    00:00 +4°C° 0 mm 2 mps 737 mmHg 69%
    01:00 +3°C° 0 mm 2 mps 737 mmHg 69%
    02:00 +3°C° 0 mm 2 mps 738 mmHg 69%
    03:00 +3°C° 0 mm 2 mps 738 mmHg 69%
    04:00 +3°C° 0 mm 2 mps 738 mmHg 69%
    05:00 +3°C° 0 mm 2 mps 738 mmHg 69%
    06:00 +3°C° 0 mm 2 mps 738 mmHg 70%
    07:00 +3°C° 0 mm 2 mps 739 mmHg 70%
    14:00 +12°C° 0 mm 2 mps 741 mmHg 47%
    15:00 +12°C° 0 mm 2 mps 740 mmHg 50%
    16:00 +12°C° 0 mm 2 mps 740 mmHg 52%
    17:00 +10°C° 0 mm 1 mps 740 mmHg 57%
    18:00 +9°C° 0 mm 1 mps 741 mmHg 61%
    19:00 +7°C° 0 mm 1 mps 741 mmHg 65%
    20:00 +7°C° 0 mm 1 mps 741 mmHg 65%
    21:00 +6°C° 0 mm 2 mps 742 mmHg 65%
    22:00 +6°C° 0 mm 2 mps 742 mmHg 65%
    23:00 +5°C° 0 mm 2 mps 743 mmHg 64%

    22 February, Saturday

    Time Temperature Precipitation Wind Pressure Humidity
    00:00 +5°C° 0 mm 2 mps 743 mmHg 64%
    01:00 +5°C° 0 mm 2 mps 743 mmHg 63%
    02:00 +5°C° 0 mm 2 mps 743 mmHg 61%
    03:00 +5°C° 0 mm 2 mps 743 mmHg 60%
    04:00 +6°C° 0 mm 1 mps 743 mmHg 58%
    05:00 +6°C° 0 mm 1 mps 743 mmHg 58%
    06:00 +6°C° 0 mm 1 mps 743 mmHg 57%
    07:00 +6°C° 0 mm 1 mps 743 mmHg 57%
    08:00 +8°C° 0 mm 1 mps 744 mmHg 52%
    09:00 +10°C° 0 mm 1 mps 744 mmHg 47%
    10:00 +12°C° 0 mm 1 mps 744 mmHg 42%
    11:00 +12°C° 0 mm 1 mps 744 mmHg 41%
    12:00 +13°C° 0 mm 1 mps 744 mmHg 40%
    13:00 +14°C° 0 mm 2 mps 744 mmHg 39%
    14:00 +13°C° 0 mm 2 mps 744 mmHg 43%
    15:00 +13°C° 0 mm 2 mps 744 mmHg 47%
    16:00 +13°C° 0 mm 2 mps 744 mmHg 51%
    17:00 +10°C° 0 mm 2 mps 744 mmHg 56%
    18:00 +10°C° 0 mm 1 mps 744 mmHg 61%
    19:00 +8°C° 0 mm 1 mps 744 mmHg 66%
    20:00 +8°C° 0 mm 1 mps 745 mmHg 65%
    21:00 +8°C° 0 mm 1 mps 745 mmHg 64%
    22:00 +8°C° 0 mm 1 mps 745 mmHg 63%
    23:00 +8°C° 0 mm 1 mps 745 mmHg 62%
    Show more